Cottonwood Airport (P52)
Cottonwood, AZ
Field Elevation: 3562
Lat: 34°43.80N  Long: 112°02.10W
CTAF/Unicom Freq: 122.7000
   
    
Weather Advisories
11/1/2014 13:37 Z
Altimeter 29.93" Hg
Wind 140° @ 0 KT
Gusts --
Visibility 10 SM
Temperature 17° C (63° F)
Dewpoint 9° C (48° F)
Relative Humidity 61%
Density Altitude 4,600 feet
Condensation Altitude 7,400 feet
  Wind and Runways
Indicated Runway = 14
History
 
 
More Info
All DigiWx sites map
NOAA Forecast
 
Airport IQ 5010
 
about DigiWx
 
FAA Disclaimer: The data displayed is for advisory purposes only and is not to be used for flight planning or operations. For official data, please call (not available) to hear the current automated AWOS voice message.
  METAR P52 011337Z AUTO 14000KT 10SM 17/09 A2993